Location: Amsterdam
(30.7274°N, 84.4357°W)
Time: 15:57:58
(UTC+00:00)

Vanguard 1 Rocket - Pass Details

Date: 20 February 2026
Orbit: 653 x 4214 km, 34.3° (Epoch: 6 March)

Event Time Altitude Azimuth Distance (km) Brightness Sun altitude
Rises 03:21:54 0° 280° (W) 7,803 12.8 -50.1°
Reaches altitude 10° 03:29:25 10° 266° (W) 7,160 12.3 -51.6°
Maximum altitude 03:44:53 20° 228° (SW) 6,511 11.7 -54.6°
Drops below altitude 10° 04:00:09 10° 189° (S) 6,884 11.7 -57.5°
Enters shadow 04:01:22 - 186° (S) 6,956 11.7 -57.7°
